SITE: BDASe,YEAR: 2007,,,,,,
2007date,time,pzhd (cm),gw temp (C),DWT (cm),WT elev (m),,
01/01/07,0:00,274.8,12.2,96.8,1372.512,,1/1 00:00--10/3 10:30:
01/01/07,0:30,274.7,12.2,96.9,1372.511,,Depth to water table:
01/01/07,1:00,275.0,12.2,96.6,1372.514,,DWT = SCL - CH - h (all values in cm)
01/01/07,1:30,274.5,12.1,97.1,1372.509,,where
01/01/07,2:00,274.9,12.2,96.7,1372.513,,SCL = sensor cable length = 519.0 cm
01/01/07,2:30,275.5,12.2,96.1,1372.519,,CH = casing height of well = 147.4 cm
01/01/07,3:00,275.0,12.1,96.6,1372.514,,h = height of water above sensor (from pzhd column)
01/01/07,3:30,274.8,12.2,96.8,1372.512,,
01/01/07,4:00,274.5,12.2,97.1,1372.509,,WT elevation:
01/01/07,4:30,274.7,12.1,96.9,1372.511,,Sensor elev = 1369.764 m asl
01/01/07,5:00,274.7,12.1,96.9,1372.511,,WT elev = sensor elev + h (from pzhd column)
01/01/07,5:30,274.8,12.1,96.8,1372.512,,
01/01/07,6:00,274.9,12.1,96.7,1372.513,,
01/01/07,6:30,274.9,12.2,96.7,1372.513,,Dates with missing data (# 0.5 hr data points):
01/01/07,7:00,274.9,12.1,96.7,1372.513,,"3/20 (4), 6/12 (2)."
01/01/07,7:30,274.9,12.2,96.7,1372.513,,
01/01/07,8:00,274.6,12.2,97.0,1372.510,,
01/01/07,8:30,274.8,12.2,96.8,1372.512,,Dates w/missing T data:
01/01/07,9:00,274.7,12.1,96.9,1372.511,,"1/18, 3/20, 5/15, 7/30 10/3, 12/9."
01/01/07,9:30,274.7,12.1,96.9,1372.511,,
01/01/07,10:00,274.6,12.2,97.0,1372.510,,
01/01/07,10:30,274.9,12.1,96.7,1372.513,,
01/01/07,11:00,274.2,12.2,97.4,1372.506,,
01/01/07,11:30,274.9,12.1,96.7,1372.513,,
01/01/07,12:00,275.4,12.1,96.2,1372.518,,
01/01/07,12:30,276.2,12.1,95.4,1372.526,,
01/01/07,13:00,276.4,12.1,95.2,1372.528,,
01/01/07,13:30,277.2,12.1,94.4,1372.536,,
01/01/07,14:00,277.2,12.1,94.4,1372.536,,
01/01/07,14:30,277.0,12.2,94.6,1372.534,,
01/01/07,15:00,277.7,12.1,93.9,1372.541,,
01/01/07,15:30,277.5,12.1,94.1,1372.539,,
01/01/07,16:00,277.7,12.1,93.9,1372.541,,
01/01/07,16:30,277.6,12.0,94.0,1372.540,,
01/01/07,17:00,278.0,12.1,93.6,1372.544,,
01/01/07,17:30,277.8,12.1,93.8,1372.542,,
01/01/07,18:00,278.0,12.1,93.6,1372.544,,
01/01/07,18:30,278.0,12.1,93.6,1372.544,,
01/01/07,19:00,277.8,12.1,93.8,1372.542,,
01/01/07,19:30,277.5,12.2,94.1,1372.539,,
01/01/07,20:00,277.2,12.2,94.4,1372.536,,
01/01/07,20:30,277.2,12.2,94.4,1372.536,,
01/01/07,21:00,277.3,12.1,94.3,1372.537,,
01/01/07,21:30,277.0,12.1,94.6,1372.534,,
01/01/07,22:00,277.2,12.1,94.4,1372.536,,
01/01/07,22:30,277.1,12.1,94.5,1372.535,,
01/01/07,23:00,276.7,12.1,94.9,1372.531,,
01/01/07,23:30,276.7,12.1,94.9,1372.531,,
01/02/07,0:00,276.9,12.1,94.7,1372.533,,
01/02/07,0:30,276.6,12.2,95.0,1372.530,,
01/02/07,1:00,276.5,12.2,95.1,1372.529,,
01/02/07,1:30,276.8,12.2,94.8,1372.532,,
01/02/07,2:00,277.1,12.1,94.5,1372.535,,
01/02/07,2:30,276.9,12.1,94.7,1372.533,,
01/02/07,3:00,277.4,12.1,94.2,1372.538,,
01/02/07,3:30,276.9,12.1,94.7,1372.533,,
01/02/07,4:00,277.0,12.1,94.6,1372.534,,
01/02/07,4:30,277.5,12.1,94.1,1372.539,,
01/02/07,5:00,276.8,12.2,94.8,1372.532,,
01/02/07,5:30,277.7,12.1,93.9,1372.541,,
01/02/07,6:00,277.6,12.1,94.0,1372.540,,
01/02/07,6:30,276.8,12.1,94.8,1372.532,,
01/02/07,7:00,276.9,12.1,94.7,1372.533,,
01/02/07,7:30,276.5,12.1,95.1,1372.529,,
01/02/07,8:00,276.7,12.1,94.9,1372.531,,
01/02/07,8:30,276.1,12.1,95.5,1372.525,,
01/02/07,9:00,276.4,12.1,95.2,1372.528,,
01/02/07,9:30,276.1,12.2,95.5,1372.525,,
01/02/07,10:00,275.5,12.1,96.1,1372.519,,
01/02/07,10:30,275.9,12.1,95.7,1372.523,,
01/02/07,11:00,275.8,12.1,95.8,1372.522,,
01/02/07,11:30,276.1,12.1,95.5,1372.525,,
01/02/07,12:00,276.1,12.1,95.5,1372.525,,
01/02/07,12:30,276.5,12.1,95.1,1372.529,,
01/02/07,13:00,276.8,12.1,94.8,1372.532,,
01/02/07,13:30,277.2,12.1,94.4,1372.536,,
01/02/07,14:00,277.5,12.1,94.1,1372.539,,
01/02/07,14:30,277.1,12.1,94.5,1372.535,,
01/02/07,15:00,277.9,12.1,93.7,1372.543,,
01/02/07,15:30,277.9,12.1,93.7,1372.543,,
01/02/07,16:00,277.4,12.1,94.2,1372.538,,
01/02/07,16:30,277.8,12.1,93.8,1372.542,,
01/02/07,17:00,277.5,12.1,94.1,1372.539,,
01/02/07,17:30,277.1,12.1,94.5,1372.535,,
01/02/07,18:00,277.5,12.1,94.1,1372.539,,
01/02/07,18:30,277.2,12.1,94.4,1372.536,,
01/02/07,19:00,276.8,12.1,94.8,1372.532,,
01/02/07,19:30,276.9,12.1,94.7,1372.533,,
01/02/07,20:00,276.6,12.1,95.0,1372.530,,
01/02/07,20:30,276.7,12.1,94.9,1372.531,,
01/02/07,21:00,277.1,12.1,94.5,1372.535,,
01/02/07,21:30,277.1,12.1,94.5,1372.535,,
01/02/07,22:00,277.0,12.1,94.6,1372.534,,
01/02/07,22:30,276.7,12.1,94.9,1372.531,,
01/02/07,23:00,276.8,12.1,94.8,1372.532,,
01/02/07,23:30,277.1,12.1,94.5,1372.535,,
01/03/07,0:00,276.6,12.1,95.0,1372.530,,
01/03/07,0:30,277.1,12.1,94.5,1372.535,,
01/03/07,1:00,277.0,12.1,94.6,1372.534,,
01/03/07,1:30,277.0,12.1,94.6,1372.534,,
01/03/07,2:00,277.1,12.1,94.5,1372.535,,
01/03/07,2:30,277.6,12.1,94.0,1372.540,,
01/03/07,3:00,277.0,12.1,94.6,1372.534,,
01/03/07,3:30,276.4,12.1,95.2,1372.528,,
01/03/07,4:00,275.9,12.1,95.7,1372.523,,
01/03/07,4:30,275.9,12.1,95.7,1372.523,,
01/03/07,5:00,276.3,12.1,95.3,1372.527,,
01/03/07,5:30,276.0,12.1,95.6,1372.524,,
01/03/07,6:00,276.5,12.1,95.1,1372.529,,
01/03/07,6:30,276.2,12.1,95.4,1372.526,,
01/03/07,7:00,276.1,12.1,95.5,1372.525,,
01/03/07,7:30,276.5,12.1,95.1,1372.529,,
01/03/07,8:00,276.3,12.1,95.3,1372.527,,
01/03/07,8:30,277.2,12.1,94.4,1372.536,,
01/03/07,9:00,276.7,12.1,94.9,1372.531,,
01/03/07,9:30,276.2,12.1,95.4,1372.526,,
01/03/07,10:00,276.7,12.1,94.9,1372.531,,
01/03/07,10:30,276.5,12.1,95.1,1372.529,,
01/03/07,11:00,276.8,12.1,94.8,1372.532,,
01/03/07,11:30,276.8,12.1,94.8,1372.532,,
01/03/07,12:00,277.3,12.1,94.3,1372.537,,
01/03/07,12:30,277.9,12.1,93.7,1372.543,,
01/03/07,13:00,277.5,12.1,94.1,1372.539,,
01/03/07,13:30,278.2,12.1,93.4,1372.546,,
01/03/07,14:00,278.4,12.1,93.2,1372.548,,
01/03/07,14:30,278.4,12.1,93.2,1372.548,,
01/03/07,15:00,278.9,12.1,92.7,1372.553,,
01/03/07,15:30,278.7,12.1,92.9,1372.551,,
01/03/07,16:00,278.9,12.1,92.7,1372.553,,
01/03/07,16:30,278.5,12.1,93.1,1372.549,,
01/03/07,17:00,278.1,12.1,93.5,1372.545,,
01/03/07,17:30,278.4,12.1,93.2,1372.548,,
01/03/07,18:00,278.0,12.0,93.6,1372.544,,
01/03/07,18:30,278.1,12.0,93.5,1372.545,,
01/03/07,19:00,278.7,12.1,92.9,1372.551,,
01/03/07,19:30,278.3,12.0,93.3,1372.547,,
01/03/07,20:00,278.3,12.1,93.3,1372.547,,
01/03/07,20:30,278.4,12.0,93.2,1372.548,,
01/03/07,21:00,277.8,12.0,93.8,1372.542,,
01/03/07,21:30,277.8,12.0,93.8,1372.542,,
01/03/07,22:00,278.0,12.0,93.6,1372.544,,
01/03/07,22:30,278.1,12.0,93.5,1372.545,,
01/03/07,23:00,277.8,12.0,93.8,1372.542,,
01/03/07,23:30,277.7,12.0,93.9,1372.541,,
01/04/07,0:00,277.8,12.0,93.8,1372.542,,
01/04/07,0:30,277.9,12.1,93.7,1372.543,,
01/04/07,1:00,278.4,12.1,93.2,1372.548,,
01/04/07,1:30,277.7,12.0,93.9,1372.541,,
01/04/07,2:00,277.7,12.0,93.9,1372.541,,
01/04/07,2:30,277.9,12.0,93.7,1372.543,,
01/04/07,3:00,277.8,12.1,93.8,1372.542,,
01/04/07,3:30,277.6,12.1,94.0,1372.540,,
01/04/07,4:00,277.7,12.1,93.9,1372.541,,
01/04/07,4:30,277.2,12.0,94.4,1372.536,,
01/04/07,5:00,277.4,12.0,94.2,1372.538,,
01/04/07,5:30,277.5,12.0,94.1,1372.539,,
01/04/07,6:00,277.6,12.0,94.0,1372.540,,
01/04/07,6:30,277.4,12.0,94.2,1372.538,,
01/04/07,7:00,277.4,12.0,94.2,1372.538,,
01/04/07,7:30,277.6,12.0,94.0,1372.540,,
01/04/07,8:00,277.5,12.0,94.1,1372.539,,
01/04/07,8:30,277.2,12.0,94.4,1372.536,,
01/04/07,9:00,276.6,12.0,95.0,1372.530,,
01/04/07,9:30,276.5,12.0,95.1,1372.529,,
01/04/07,10:00,276.8,12.0,94.8,1372.532,,
01/04/07,10:30,276.7,12.0,94.9,1372.531,,
01/04/07,11:00,276.9,12.0,94.7,1372.533,,
01/04/07,11:30,277.4,12.0,94.2,1372.538,,
01/04/07,12:00,277.5,12.0,94.1,1372.539,,
01/04/07,12:30,278.4,12.0,93.2,1372.548,,
01/04/07,13:00,278.5,12.0,93.1,1372.549,,
01/04/07,13:30,279.1,12.0,92.5,1372.555,,
01/04/07,14:00,278.8,12.0,92.8,1372.552,,
01/04/07,14:30,278.6,12.0,93.0,1372.550,,
01/04/07,15:00,279.8,12.0,91.8,1372.562,,
01/04/07,15:30,279.1,12.0,92.5,1372.555,,
01/04/07,16:00,279.7,12.0,91.9,1372.561,,
01/04/07,16:30,279.8,12.0,91.8,1372.562,,
01/04/07,17:00,279.6,12.0,92.0,1372.560,,
01/04/07,17:30,280.0,12.0,91.6,1372.564,,
01/04/07,18:00,279.9,12.0,91.7,1372.563,,
01/04/07,18:30,280.5,12.0,91.1,1372.569,,
01/04/07,19:00,279.8,12.0,91.8,1372.562,,
01/04/07,19:30,279.4,12.0,92.2,1372.558,,
01/04/07,20:00,279.1,12.0,92.5,1372.555,,
01/04/07,20:30,279.0,12.0,92.6,1372.554,,
01/04/07,21:00,278.6,12.0,93.0,1372.550,,
01/04/07,21:30,278.7,12.0,92.9,1372.551,,
01/04/07,22:00,278.8,12.0,92.8,1372.552,,
01/04/07,22:30,279.2,12.0,92.4,1372.556,,
01/04/07,23:00,279.0,12.0,92.6,1372.554,,
01/04/07,23:30,278.8,12.0,92.8,1372.552,,
01/05/07,0:00,279.5,12.0,92.1,1372.559,,
01/05/07,0:30,279.1,12.0,92.5,1372.555,,
01/05/07,1:00,279.4,12.0,92.2,1372.558,,
01/05/07,1:30,279.1,12.0,92.5,1372.555,,
01/05/07,2:00,279.1,12.0,92.5,1372.555,,
01/05/07,2:30,279.5,12.0,92.1,1372.559,,
01/05/07,3:00,279.7,12.0,91.9,1372.561,,
01/05/07,3:30,279.7,12.0,91.9,1372.561,,
01/05/07,4:00,279.4,12.0,92.2,1372.558,,
01/05/07,4:30,279.9,12.0,91.7,1372.563,,
01/05/07,5:00,279.7,12.0,91.9,1372.561,,
01/05/07,5:30,280.1,12.0,91.5,1372.565,,
01/05/07,6:00,279.4,12.0,92.2,1372.558,,
01/05/07,6:30,278.8,12.0,92.8,1372.552,,
01/05/07,7:00,279.2,12.0,92.4,1372.556,,
01/05/07,7:30,278.7,12.0,92.9,1372.551,,
01/05/07,8:00,278.4,12.0,93.2,1372.548,,
01/05/07,8:30,278.2,12.0,93.4,1372.546,,
01/05/07,9:00,278.3,12.0,93.3,1372.547,,
01/05/07,9:30,278.2,12.0,93.4,1372.546,,
01/05/07,10:00,278.1,12.0,93.5,1372.545,,
01/05/07,10:30,277.9,12.0,93.7,1372.543,,
01/05/07,11:00,278.4,12.0,93.2,1372.548,,
01/05/07,11:30,278.7,12.0,92.9,1372.551,,
01/05/07,12:00,279.6,12.0,92.0,1372.560,,
01/05/07,12:30,279.2,12.0,92.4,1372.556,,
01/05/07,13:00,279.2,11.9,92.4,1372.556,,
01/05/07,13:30,280.0,11.9,91.6,1372.564,,
01/05/07,14:00,279.8,12.0,91.8,1372.562,,
01/05/07,14:30,279.8,11.9,91.8,1372.562,,
01/05/07,15:00,279.8,12.0,91.8,1372.562,,
01/05/07,15:30,279.5,12.0,92.1,1372.559,,
01/05/07,16:00,279.8,12.0,91.8,1372.562,,
01/05/07,16:30,279.8,11.9,91.8,1372.562,,
01/05/07,17:00,279.7,12.0,91.9,1372.561,,
01/05/07,17:30,279.1,11.9,92.5,1372.555,,
01/05/07,18:00,279.0,11.9,92.6,1372.554,,
01/05/07,18:30,278.5,11.9,93.1,1372.549,,
01/05/07,19:00,278.4,11.9,93.2,1372.548,,
01/05/07,19:30,278.0,11.9,93.6,1372.544,,
01/05/07,20:00,277.7,12.0,93.9,1372.541,,
01/05/07,20:30,277.5,12.0,94.1,1372.539,,
01/05/07,21:00,277.0,12.0,94.6,1372.534,,
01/05/07,21:30,276.8,12.0,94.8,1372.532,,
01/05/07,22:00,276.7,12.0,94.9,1372.531,,
01/05/07,22:30,276.5,12.0,95.1,1372.529,,
01/05/07,23:00,276.3,12.0,95.3,1372.527,,
01/05/07,23:30,276.6,12.0,95.0,1372.530,,
01/06/07,0:00,276.3,12.0,95.3,1372.527,,
01/06/07,0:30,276.4,12.0,95.2,1372.528,,
01/06/07,1:00,276.5,12.0,95.1,1372.529,,
01/06/07,1:30,275.9,11.9,95.7,1372.523,,
01/06/07,2:00,275.5,11.9,96.1,1372.519,,
01/06/07,2:30,275.4,11.9,96.2,1372.518,,
01/06/07,3:00,276.0,12.0,95.6,1372.524,,
01/06/07,3:30,275.3,12.0,96.3,1372.517,,
01/06/07,4:00,275.4,12.0,96.2,1372.518,,
01/06/07,4:30,275.3,12.0,96.3,1372.517,,
01/06/07,5:00,275.3,12.0,96.3,1372.517,,
01/06/07,5:30,274.7,12.0,96.9,1372.511,,
01/06/07,6:00,275.2,11.9,96.4,1372.516,,
01/06/07,6:30,275.5,12.0,96.1,1372.519,,
01/06/07,7:00,275.1,11.9,96.5,1372.515,,
01/06/07,7:30,275.1,11.9,96.5,1372.515,,
01/06/07,8:00,275.4,12.0,96.2,1372.518,,
01/06/07,8:30,275.6,11.9,96.0,1372.520,,
01/06/07,9:00,275.8,12.0,95.8,1372.522,,
01/06/07,9:30,275.8,11.9,95.8,1372.522,,
01/06/07,10:00,275.6,11.9,96.0,1372.520,,
01/06/07,10:30,275.7,11.9,95.9,1372.521,,
01/06/07,11:00,275.3,11.9,96.3,1372.517,,
01/06/07,11:30,275.4,12.0,96.2,1372.518,,
01/06/07,12:00,275.4,12.0,96.2,1372.518,,
01/06/07,12:30,275.6,11.9,96.0,1372.520,,
01/06/07,13:00,275.5,11.9,96.1,1372.519,,
01/06/07,13:30,276.1,11.9,95.5,1372.525,,
01/06/07,14:00,276.0,12.0,95.6,1372.524,,
01/06/07,14:30,275.5,11.9,96.1,1372.519,,
01/06/07,15:00,276.3,11.9,95.3,1372.527,,
01/06/07,15:30,275.5,11.9,96.1,1372.519,,
01/06/07,16:00,275.8,11.9,95.8,1372.522,,
01/06/07,16:30,276.5,11.9,95.1,1372.529,,
01/06/07,17:00,276.6,12.0,95.0,1372.530,,
01/06/07,17:30,277.0,11.9,94.6,1372.534,,
01/06/07,18:00,277.9,11.9,93.7,1372.543,,
01/06/07,18:30,278.0,12.0,93.6,1372.544,,
01/06/07,19:00,279.2,12.0,92.4,1372.556,,
01/06/07,19:30,279.7,12.0,91.9,1372.561,,
01/06/07,20:00,280.1,11.9,91.5,1372.565,,
01/06/07,20:30,280.4,11.9,91.2,1372.568,,
01/06/07,21:00,280.4,11.9,91.2,1372.568,,
01/06/07,21:30,280.1,12.0,91.5,1372.565,,
01/06/07,22:00,280.7,12.0,90.9,1372.571,,
01/06/07,22:30,280.4,12.0,91.2,1372.568,,
01/06/07,23:00,280.6,11.9,91.0,1372.570,,
01/06/07,23:30,280.7,11.9,90.9,1372.571,,
01/07/07,0:00,280.5,11.9,91.1,1372.569,,
01/07/07,0:30,281.5,12.0,90.1,1372.579,,
01/07/07,1:00,281.4,12.0,90.2,1372.578,,
01/07/07,1:30,280.9,11.9,90.7,1372.573,,
01/07/07,2:00,281.3,11.9,90.3,1372.577,,
01/07/07,2:30,281.8,11.9,89.8,1372.582,,
01/07/07,3:00,281.6,11.9,90.0,1372.580,,
01/07/07,3:30,281.3,12.0,90.3,1372.577,,
01/07/07,4:00,281.3,11.9,90.3,1372.577,,
01/07/07,4:30,281.7,11.9,89.9,1372.581,,
01/07/07,5:00,281.6,11.9,90.0,1372.580,,
01/07/07,5:30,281.9,11.9,89.7,1372.583,,
01/07/07,6:00,282.0,11.9,89.6,1372.584,,
01/07/07,6:30,281.8,11.9,89.8,1372.582,,
01/07/07,7:00,280.7,11.9,90.9,1372.571,,
01/07/07,7:30,280.4,12.0,91.2,1372.568,,
01/07/07,8:00,280.3,12.0,91.3,1372.567,,
01/07/07,8:30,281.1,12.0,90.5,1372.575,,
01/07/07,9:00,281.5,11.9,90.1,1372.579,,
01/07/07,9:30,280.7,11.9,90.9,1372.571,,
01/07/07,10:00,280.2,11.9,91.4,1372.566,,
01/07/07,10:30,279.9,11.9,91.7,1372.563,,
01/07/07,11:00,279.3,11.9,92.3,1372.557,,
01/07/07,11:30,278.8,11.9,92.8,1372.552,,
01/07/07,12:00,275.5,11.9,96.1,1372.519,,
01/07/07,12:30,274.3,11.9,97.3,1372.507,,
01/07/07,13:00,273.4,11.9,98.2,1372.498,,
01/07/07,13:30,274.6,11.9,97.0,1372.510,,
01/07/07,14:00,275.1,11.9,96.5,1372.515,,
01/07/07,14:30,275.4,11.9,96.2,1372.518,,
01/07/07,15:00,275.8,11.9,95.8,1372.522,,
01/07/07,15:30,275.6,11.9,96.0,1372.520,,
01/07/07,16:00,275.5,11.9,96.1,1372.519,,
01/07/07,16:30,275.9,11.9,95.7,1372.523,,
01/07/07,17:00,275.4,11.9,96.2,1372.518,,
01/07/07,17:30,275.9,11.9,95.7,1372.523,,
01/07/07,18:00,275.8,11.9,95.8,1372.522,,
01/07/07,18:30,275.6,11.9,96.0,1372.520,,
01/07/07,19:00,275.5,11.9,96.1,1372.519,,
01/07/07,19:30,275.3,11.9,96.3,1372.517,,
01/07/07,20:00,275.2,11.9,96.4,1372.516,,
01/07/07,20:30,275.6,11.9,96.0,1372.520,,
01/07/07,21:00,275.1,11.9,96.5,1372.515,,
01/07/07,21:30,275.4,11.9,96.2,1372.518,,
01/07/07,22:00,275.3,11.9,96.3,1372.517,,
01/07/07,22:30,275.4,11.9,96.2,1372.518,,
01/07/07,23:00,275.1,11.9,96.5,1372.515,,
01/07/07,23:30,275.2,11.9,96.4,1372.516,,
01/08/07,0:00,275.2,11.9,96.4,1372.516,,
01/08/07,0:30,275.5,11.9,96.1,1372.519,,
01/08/07,1:00,275.5,11.9,96.1,1372.519,,
01/08/07,1:30,275.5,11.9,96.1,1372.519,,
01/08/07,2:00,275.6,11.8,96.0,1372.520,,
01/08/07,2:30,275.3,11.9,96.3,1372.517,,
01/08/07,3:00,274.6,11.9,97.0,1372.510,,
01/08/07,3:30,274.5,11.9,97.1,1372.509,,
01/08/07,4:00,274.9,11.9,96.7,1372.513,,
01/08/07,4:30,275.4,11.9,96.2,1372.518,,
01/08/07,5:00,274.9,11.9,96.7,1372.513,,
01/08/07,5:30,275.4,11.9,96.2,1372.518,,
01/08/07,6:00,275.2,11.9,96.4,1372.516,,
01/08/07,6:30,274.7,11.9,96.9,1372.511,,
01/08/07,7:00,274.9,11.9,96.7,1372.513,,
01/08/07,7:30,274.6,11.9,97.0,1372.510,,
01/08/07,8:00,275.0,11.9,96.6,1372.514,,
01/08/07,8:30,274.7,11.9,96.9,1372.511,,
01/08/07,9:00,275.1,11.9,96.5,1372.515,,
01/08/07,9:30,275.1,11.9,96.5,1372.515,,
01/08/07,10:00,274.7,11.9,96.9,1372.511,,
01/08/07,10:30,275.0,11.9,96.6,1372.514,,
01/08/07,11:00,274.5,11.9,97.1,1372.509,,
01/08/07,11:30,275.5,11.9,96.1,1372.519,,
01/08/07,12:00,275.8,11.9,95.8,1372.522,,
01/08/07,12:30,276.1,11.9,95.5,1372.525,,
01/08/07,13:00,276.4,11.9,95.2,1372.528,,
01/08/07,13:30,276.8,11.9,94.8,1372.532,,
01/08/07,14:00,277.2,11.9,94.4,1372.536,,
01/08/07,14:30,277.2,11.9,94.4,1372.536,,
01/08/07,15:00,277.5,11.9,94.1,1372.539,,
01/08/07,15:30,277.4,11.9,94.2,1372.538,,
01/08/07,16:00,277.9,11.9,93.7,1372.543,,
01/08/07,16:30,277.7,11.9,93.9,1372.541,,
01/08/07,17:00,277.6,11.9,94.0,1372.540,,
01/08/07,17:30,277.2,11.9,94.4,1372.536,,
01/08/07,18:00,277.4,11.8,94.2,1372.538,,
01/08/07,18:30,277.5,11.8,94.1,1372.539,,
01/08/07,19:00,277.8,11.9,93.8,1372.542,,
01/08/07,19:30,277.8,11.9,93.8,1372.542,,
01/08/07,20:00,277.3,11.9,94.3,1372.537,,
01/08/07,20:30,277.6,11.9,94.0,1372.540,,
01/08/07,21:00,276.9,11.9,94.7,1372.533,,
01/08/07,21:30,276.9,11.9,94.7,1372.533,,
01/08/07,22:00,276.7,11.9,94.9,1372.531,,
01/08/07,22:30,276.6,11.9,95.0,1372.530,,
01/08/07,23:00,277.0,11.9,94.6,1372.534,,
01/08/07,23:30,276.6,11.9,95.0,1372.530,,
01/09/07,0:00,276.7,11.9,94.9,1372.531,,
01/09/07,0:30,276.5,11.9,95.1,1372.529,,
01/09/07,1:00,276.9,11.9,94.7,1372.533,,
01/09/07,1:30,277.2,11.8,94.4,1372.536,,
01/09/07,2:00,276.7,11.9,94.9,1372.531,,
01/09/07,2:30,277.0,11.9,94.6,1372.534,,
01/09/07,3:00,277.5,11.9,94.1,1372.539,,
01/09/07,3:30,277.4,11.8,94.2,1372.538,,
01/09/07,4:00,277.0,11.9,94.6,1372.534,,
01/09/07,4:30,277.3,11.9,94.3,1372.537,,
01/09/07,5:00,276.8,11.8,94.8,1372.532,,
01/09/07,5:30,277.1,11.9,94.5,1372.535,,
01/09/07,6:00,276.8,11.8,94.8,1372.532,,
01/09/07,6:30,276.6,11.8,95.0,1372.530,,
01/09/07,7:00,276.6,11.8,95.0,1372.530,,
01/09/07,7:30,275.9,11.8,95.7,1372.523,,
01/09/07,8:00,276.3,11.8,95.3,1372.527,,
01/09/07,8:30,275.6,11.8,96.0,1372.520,,
01/09/07,9:00,276.0,11.8,95.6,1372.524,,
01/09/07,9:30,275.6,11.8,96.0,1372.520,,
01/09/07,10:00,275.5,11.9,96.1,1372.519,,
01/09/07,10:30,276.1,11.8,95.5,1372.525,,
01/09/07,11:00,275.7,11.9,95.9,1372.521,,
01/09/07,11:30,276.5,11.8,95.1,1372.529,,
01/09/07,12:00,276.5,11.9,95.1,1372.529,,
01/09/07,12:30,276.7,11.9,94.9,1372.531,,
01/09/07,13:00,277.2,11.9,94.4,1372.536,,
01/09/07,13:30,277.8,11.8,93.8,1372.542,,
01/09/07,14:00,277.8,11.8,93.8,1372.542,,
01/09/07,14:30,278.1,11.8,93.5,1372.545,,
01/09/07,15:00,278.2,11.8,93.4,1372.546,,
01/09/07,15:30,278.4,11.8,93.2,1372.548,,
01/09/07,16:00,279.1,11.8,92.5,1372.555,,
01/09/07,16:30,278.5,11.9,93.1,1372.549,,
01/09/07,17:00,278.8,11.9,92.8,1372.552,,
01/09/07,17:30,278.6,11.8,93.0,1372.550,,
01/09/07,18:00,279.3,11.8,92.3,1372.557,,
01/09/07,18:30,279.5,11.8,92.1,1372.559,,
01/09/07,19:00,279.2,11.9,92.4,1372.556,,
01/09/07,19:30,279.5,11.8,92.1,1372.559,,
01/09/07,20:00,279.0,11.8,92.6,1372.554,,
01/09/07,20:30,279.1,11.9,92.5,1372.555,,
01/09/07,21:00,279.1,11.8,92.5,1372.555,,
01/09/07,21:30,279.2,11.8,92.4,1372.556,,
01/09/07,22:00,279.3,11.8,92.3,1372.557,,
01/09/07,22:30,279.0,11.8,92.6,1372.554,,
01/09/07,23:00,278.9,11.8,92.7,1372.553,,
01/09/07,23:30,278.9,11.8,92.7,1372.553,,
01/10/07,0:00,279.2,11.8,92.4,1372.556,,
01/10/07,0:30,279.2,11.8,92.4,1372.556,,
01/10/07,1:00,278.8,11.8,92.8,1372.552,,
01/10/07,1:30,279.4,11.8,92.2,1372.558,,
01/10/07,2:00,278.9,11.8,92.7,1372.553,,
01/10/07,2:30,278.6,11.8,93.0,1372.550,,
01/10/07,3:00,279.0,11.8,92.6,1372.554,,
01/10/07,3:30,278.5,11.8,93.1,1372.549,,
01/10/07,4:00,279.0,11.8,92.6,1372.554,,
01/10/07,4:30,278.5,11.8,93.1,1372.549,,
01/10/07,5:00,278.6,11.8,93.0,1372.550,,
01/10/07,5:30,279.3,11.8,92.3,1372.557,,
01/10/07,6:00,278.4,11.7,93.2,1372.548,,
01/10/07,6:30,278.6,11.8,93.0,1372.550,,
01/10/07,7:00,278.6,11.8,93.0,1372.550,,
01/10/07,7:30,278.0,11.8,93.6,1372.544,,
01/10/07,8:00,277.9,11.8,93.7,1372.543,,
01/10/07,8:30,278.2,11.8,93.4,1372.546,,
01/10/07,9:00,278.3,11.8,93.3,1372.547,,
01/10/07,9:30,278.8,11.8,92.8,1372.552,,
01/10/07,10:00,277.9,11.8,93.7,1372.543,,
01/10/07,10:30,278.0,11.8,93.6,1372.544,,
01/10/07,11:00,278.7,11.8,92.9,1372.551,,
01/10/07,11:30,279.2,11.8,92.4,1372.556,,
01/10/07,12:00,279.7,11.8,91.9,1372.561,,
01/10/07,12:30,279.9,11.8,91.7,1372.563,,
01/10/07,13:00,280.4,11.7,91.2,1372.568,,
01/10/07,13:30,280.6,11.8,91.0,1372.570,,
01/10/07,14:00,281.5,11.8,90.1,1372.579,,
01/10/07,14:30,281.6,11.8,90.0,1372.580,,
01/10/07,15:00,280.9,11.7,90.7,1372.573,,
01/10/07,15:30,280.9,11.8,90.7,1372.573,,
01/10/07,16:00,281.1,11.8,90.5,1372.575,,
01/10/07,16:30,281.3,11.8,90.3,1372.577,,
01/10/07,17:00,280.9,11.8,90.7,1372.573,,
01/10/07,17:30,281.0,11.8,90.6,1372.574,,
01/10/07,18:00,281.2,11.8,90.4,1372.576,,
01/10/07,18:30,281.2,11.8,90.4,1372.576,,
01/10/07,19:00,281.1,11.8,90.5,1372.575,,
01/10/07,19:30,280.6,11.8,91.0,1372.570,,
01/10/07,20:00,280.6,11.8,91.0,1372.570,,
01/10/07,20:30,280.4,11.7,91.2,1372.568,,
01/10/07,21:00,280.0,11.7,91.6,1372.564,,
01/10/07,21:30,279.8,11.7,91.8,1372.562,,
01/10/07,22:00,280.1,11.7,91.5,1372.565,,
01/10/07,22:30,280.2,11.7,91.4,1372.566,,
01/10/07,23:00,279.9,11.7,91.7,1372.563,,
01/10/07,23:30,279.9,11.7,91.7,1372.563,,
01/11/07,0:00,280.0,11.8,91.6,1372.564,,
01/11/07,0:30,280.0,11.7,91.6,1372.564,,
01/11/07,1:00,279.9,11.8,91.7,1372.563,,
01/11/07,1:30,280.3,11.7,91.3,1372.567,,
01/11/07,2:00,280.4,11.8,91.2,1372.568,,
01/11/07,2:30,280.6,11.8,91.0,1372.570,,
01/11/07,3:00,280.3,11.8,91.3,1372.567,,
01/11/07,3:30,280.5,11.7,91.1,1372.569,,
01/11/07,4:00,280.0,11.7,91.6,1372.564,,
01/11/07,4:30,280.4,11.7,91.2,1372.568,,
01/11/07,5:00,279.7,11.7,91.9,1372.561,,
01/11/07,5:30,280.1,11.8,91.5,1372.565,,
01/11/07,6:00,280.5,11.7,91.1,1372.569,,
01/11/07,6:30,280.0,11.8,91.6,1372.564,,
01/11/07,7:00,280.0,11.7,91.6,1372.564,,
01/11/07,7:30,280.1,11.7,91.5,1372.565,,
01/11/07,8:00,279.4,11.7,92.2,1372.558,,
01/11/07,8:30,279.8,11.7,91.8,1372.562,,
01/11/07,9:00,279.9,11.7,91.7,1372.563,,
01/11/07,9:30,279.4,11.8,92.2,1372.558,,
01/11/07,10:00,279.2,11.8,92.4,1372.556,,
01/11/07,10:30,279.3,11.8,92.3,1372.557,,
01/11/07,11:00,278.8,11.8,92.8,1372.552,,
01/11/07,11:30,278.9,11.7,92.7,1372.553,,
01/11/07,12:00,279.0,11.7,92.6,1372.554,,
01/11/07,12:30,279.0,11.7,92.6,1372.554,,
01/11/07,13:00,278.9,11.8,92.7,1372.553,,
01/11/07,13:30,279.1,11.7,92.5,1372.555,,
01/11/07,14:00,280.1,11.7,91.5,1372.565,,
01/11/07,14:30,280.1,11.7,91.5,1372.565,,
01/11/07,15:00,279.9,11.7,91.7,1372.563,,
01/11/07,15:30,279.9,11.7,91.7,1372.563,,
01/11/07,16:00,280.1,11.8,91.5,1372.565,,
01/11/07,16:30,280.0,11.8,91.6,1372.564,,
01/11/07,17:00,279.7,11.7,91.9,1372.561,,
01/11/07,17:30,279.5,11.7,92.1,1372.559,,
01/11/07,18:00,279.7,11.7,91.9,1372.561,,
01/11/07,18:30,279.6,11.7,92.0,1372.560,,
01/11/07,19:00,279.0,11.7,92.6,1372.554,,
01/11/07,19:30,278.6,11.7,93.0,1372.550,,
01/11/07,20:00,278.4,11.8,93.2,1372.548,,
01/11/07,20:30,278.5,11.8,93.1,1372.549,,
01/11/07,21:00,278.8,11.7,92.8,1372.552,,
01/11/07,21:30,278.4,11.7,93.2,1372.548,,
01/11/07,22:00,278.6,11.7,93.0,1372.550,,
01/11/07,22:30,278.3,11.7,93.3,1372.547,,
01/11/07,23:00,278.1,11.8,93.5,1372.545,,
01/11/07,23:30,278.4,11.8,93.2,1372.548,,
01/12/07,0:00,278.2,11.8,93.4,1372.546,,
01/12/07,0:30,278.2,11.7,93.4,1372.546,,
01/12/07,1:00,278.7,11.8,92.9,1372.551,,
01/12/07,1:30,279.4,11.7,92.2,1372.558,,
01/12/07,2:00,278.8,11.7,92.8,1372.552,,
01/12/07,2:30,278.7,11.7,92.9,1372.551,,
01/12/07,3:00,278.9,11.7,92.7,1372.553,,
01/12/07,3:30,278.8,11.7,92.8,1372.552,,
01/12/07,4:00,278.6,11.7,93.0,1372.550,,
01/12/07,4:30,278.9,11.7,92.7,1372.553,,
01/12/07,5:00,278.9,11.7,92.7,1372.553,,
01/12/07,5:30,279.1,11.7,92.5,1372.555,,
01/12/07,6:00,278.9,11.7,92.7,1372.553,,
01/12/07,6:30,278.3,11.7,93.3,1372.547,,
01/12/07,7:00,278.6,11.7,93.0,1372.550,,
01/12/07,7:30,278.3,11.7,93.3,1372.547,,
01/12/07,8:00,277.8,11.7,93.8,1372.542,,
01/12/07,8:30,278.2,11.8,93.4,1372.546,,
01/12/07,9:00,278.2,11.7,93.4,1372.546,,
01/12/07,9:30,278.1,11.7,93.5,1372.545,,
01/12/07,10:00,278.4,11.7,93.2,1372.548,,
01/12/07,10:30,277.8,11.7,93.8,1372.542,,
01/12/07,11:00,278.1,11.7,93.5,1372.545,,